Quillayute, WA

12:54 PM PDT on September 24, 2017 (GMT -0700)
Quillayute

Weather History for KUIL - August, 2012

Change the Weather History Date:

Wednesday, August 15, 2012

  Actual Average Record
Temperature  
Mean Temperature 72 °F 60 °F  
Max Temperature 91 °F 69 °F 91 °F (2012)
Min Temperature 53 °F 51 °F 42 °F (1986)
Degree Days  
Heating Degree Days 0 6  
Month to date heating degree days 78  
Since 1 June heating degree days 566  
Since 1 July heating degree days 272  
Cooling Degree Days 7 0  
Month to date cooling degree days 0  
Year to date cooling degree days 11  
Since 1 June cooling degree days 10  
Growing Degree Days 22 (Base 50)    
Moisture  
Dew Point 51 °F    
Average Humidity 63    
Maximum Humidity 100    
Minimum Humidity 15    
Precipitation  
Precipitation 0.00 in 0.08 in 0.95 in (1988)
Month to date precipitation 0.97  
Year to date precipitation 55.20  
Sea Level Pressure  
Sea Level Pressure 29.92 in    
Wind  
Wind Speed 8 mph (NNE)    
Max Wind Speed 24 mph    
Max Gust Speed 31 mph    
Visibility 6 miles    
Events Fog    
T = Trace of Precipitation, MM = Missing Value Source: NWS Daily Summary

Daily Weather History Graph

Daily Weather History Graph

Search for Another Location

Airport or City:

Trip Planner

Search our weather history database for the weather conditions in past years. The results will help you decide how hot, cold, wet, or windy it might be!

Date:

Astronomy

Aug. 15, 2012 Rise Set
Actual Time 6:14 AM PDT 8:30 PM PDT
Civil Twilight 5:39 AM PDT 9:04 PM PDT
Nautical Twilight 4:57 AM PDT 9:46 PM PDT
Astronomical Twilight 4:08 AM PDT 10:34 PM PDT
Moon 4:12 AM PDT (8/15) 7:08 PM PDT (8/15)
Length of Visible Light 15h 24m
Length of Day
14h 16m
Waning Crescent, 4% of the Moon is Illuminated
Aug 15
Waning Crescent
Aug 17
New
Aug 24
First Quarter
Aug 31
Full
Sep 8
Last Quarter

Hourly Weather History & Observations

Time (PDT) Temp. Dew Point Humidity Pressure Visibility Wind Dir Wind Speed Gust Speed Precip Events Conditions
12:53 AM 55.0 °F 54.0 °F 96% 29.94 in 0.2 mi Calm Calm - N/A Fog Fog
1:53 AM 55.0 °F 53.1 °F 93% 29.95 in 0.2 mi Calm Calm - N/A Fog Fog
2:53 AM 54.0 °F 53.1 °F 97% 29.94 in 0.2 mi Calm Calm - N/A Fog Fog
3:53 AM 54.0 °F 53.1 °F 97% 29.95 in 0.5 mi Calm Calm - N/A Fog Fog
4:02 AM 53.6 °F 53.6 °F 100% 29.95 in 0.2 mi Calm Calm - N/A Fog Fog
4:26 AM 53.6 °F 51.8 °F 94% 29.94 in 0.2 mi Calm Calm - N/A Fog Fog
4:53 AM 54.0 °F 52.0 °F 93% 29.95 in 0.2 mi Calm Calm - N/A Fog Fog
5:53 AM 53.1 °F 52.0 °F 96% 29.94 in 0.2 mi Calm Calm - N/A Fog Fog
6:21 AM 53.6 °F 51.8 °F 94% 29.94 in 0.2 mi Calm Calm - N/A Fog Fog
6:49 AM 53.6 °F 51.8 °F 94% 29.94 in 0.2 mi Calm Calm - N/A Fog Fog
6:53 AM 53.1 °F 51.1 °F 93% 29.94 in 0.2 mi Calm Calm - N/A Fog Fog
7:53 AM 54.0 °F 53.1 °F 97% 29.95 in 0.2 mi Calm Calm - N/A Fog Fog
8:21 AM 57.2 °F 55.4 °F 94% 29.95 in 1.0 mi Calm Calm - N/A   Mist
8:23 AM 57.2 °F 55.4 °F 94% 29.95 in 2.5 mi Calm Calm - N/A   Mostly Cloudy
8:27 AM 57.2 °F 55.4 °F 94% 29.95 in 4.0 mi Calm Calm - N/A   Scattered Clouds
8:53 AM 61.0 °F 57.0 °F 87% 29.95 in 8.0 mi Calm Calm - N/A   Clear
9:53 AM 79.0 °F 52.0 °F 39% 29.94 in 10.0 mi NE 11.5 mph 20.7 mph N/A   Clear
10:53 AM 82.0 °F 48.0 °F 30% 29.93 in 10.0 mi NE 24.2 mph 31.1 mph N/A   Clear
11:53 AM 84.0 °F 48.0 °F 28% 29.93 in 10.0 mi NNE 20.7 mph 28.8 mph N/A   Clear
12:53 PM 86.0 °F 48.9 °F 28% 29.93 in 10.0 mi NE 17.3 mph 28.8 mph N/A   Clear
1:53 PM 87.1 °F 46.9 °F 25% 29.92 in 10.0 mi NE 13.8 mph 21.9 mph N/A   Clear
2:53 PM 89.1 °F 48.0 °F 24% 29.91 in 10.0 mi NNE 11.5 mph 20.7 mph N/A   Clear
3:53 PM 89.1 °F 46.9 °F 23% 29.90 in 10.0 mi NE 13.8 mph 19.6 mph N/A   Clear
4:53 PM 90.0 °F 48.0 °F 24% 29.88 in 10.0 mi NNE 10.4 mph - N/A   Clear
5:53 PM 89.1 °F 48.0 °F 24% 29.87 in 10.0 mi NE 10.4 mph - N/A   Clear
6:53 PM 82.4 °F 51.8 °F 35% 29.87 in 10.0 mi NNW 9.2 mph - N/A   Clear
7:53 PM 75.9 °F 52.0 °F 43% 29.87 in 10.0 mi NNW 8.1 mph - N/A   Clear
8:53 PM 73.9 °F 53.1 °F 48% 29.87 in 10.0 mi North 10.4 mph - N/A   Clear
9:53 PM 72.0 °F 53.1 °F 51% 29.87 in 10.0 mi North 12.7 mph - N/A   Clear
10:53 PM 71.1 °F 50.0 °F 47% 29.87 in 10.0 mi North 8.1 mph - N/A   Clear
11:53 PM 66.0 °F 51.1 °F 59% 29.88 in 10.0 mi Calm Calm - N/A   Clear